AEA051 LEMD-MUHA

Flight info

Callsign AEA051
Flight time N/A
Altitude 36000
Route BARDI DCT VIS DCT DIRMA DCT IBIDO DCT DETOX/M085F360 DCT 40N020W 38N030W 35N040W 32N050W/M085F380 DCT AMENO M593 GRATX/N0486F400 M329 ZQA R628 TANIA EPMAR2
Aircraft B789/H-SDE1E2E3FGHIJ2J3J4J5M1RWXY/LB1D1

Departure

Time N/A
Airport Adolfo Suárez Madrid–Barajas Airport (LEMD)

Arrival

Time 2026-05-04 21:24
Airport José Martí International Airport (MUHA)
Time Latitude Longitude Altitude Speed Heading
2026-05-04 20:47 23.85735 -80.17828 39986 ft 389 kts 255°
2026-05-04 20:47 23.84225 -80.23459 39942 ft 382 kts 255°
2026-05-04 20:48 23.83491 -80.26195 39199 ft 383 kts 255°
2026-05-04 20:48 23.82714 -80.29093 37550 ft 408 kts 255°
2026-05-04 20:48 23.81902 -80.32109 36347 ft 419 kts 254°
2026-05-04 20:48 23.81070 -80.35194 35244 ft 427 kts 254°
2026-05-04 20:49 23.80225 -80.38324 34577 ft 427 kts 254°
2026-05-04 20:49 23.79390 -80.41421 34093 ft 425 kts 253°
2026-05-04 20:49 23.78547 -80.44545 33571 ft 434 kts 253°
2026-05-04 20:49 23.77684 -80.47737 33042 ft 441 kts 254°
2026-05-04 20:50 23.76810 -80.50966 32519 ft 444 kts 254°
2026-05-04 20:50 23.75932 -80.54210 32001 ft 445 kts 254°
2026-05-04 20:50 23.75053 -80.57456 31488 ft 445 kts 255°
2026-05-04 20:50 23.74188 -80.60645 30982 ft 443 kts 255°
2026-05-04 20:51 23.73314 -80.63862 30480 ft 440 kts 255°
2026-05-04 20:51 23.72446 -80.67060 29964 ft 437 kts 255°
2026-05-04 20:51 23.71583 -80.70236 29387 ft 434 kts 255°
2026-05-04 20:51 23.70727 -80.73380 28809 ft 431 kts 255°
2026-05-04 20:52 23.69876 -80.76505 28243 ft 427 kts 255°
2026-05-04 20:52 23.69030 -80.79608 27690 ft 425 kts 255°
2026-05-04 20:52 23.68200 -80.82649 27156 ft 423 kts 255°
2026-05-04 20:52 23.67351 -80.85759 26617 ft 420 kts 255°
2026-05-04 20:53 23.66528 -80.88768 26097 ft 418 kts 255°
2026-05-04 20:53 23.65699 -80.91798 25583 ft 416 kts 255°
2026-05-04 20:53 23.64874 -80.94813 25078 ft 414 kts 255°
2026-05-04 20:53 23.64051 -80.97817 24580 ft 412 kts 255°
2026-05-04 20:54 23.63232 -81.00801 24090 ft 410 kts 255°
2026-05-04 20:54 23.62417 -81.03773 23616 ft 408 kts 255°
2026-05-04 20:54 23.61605 -81.06728 23049 ft 405 kts 255°
2026-05-04 20:54 23.60799 -81.09663 22486 ft 402 kts 255°
2026-05-04 20:55 23.60000 -81.12566 21930 ft 399 kts 255°
2026-05-04 20:55 23.59473 -81.14479 21571 ft 396 kts 255°
2026-05-04 20:55 23.58682 -81.17352 21036 ft 393 kts 255°
2026-05-04 20:55 23.57898 -81.20196 20508 ft 390 kts 255°
2026-05-04 20:56 23.56868 -81.23927 19826 ft 387 kts 254°
2026-05-04 20:56 23.56096 -81.26724 19322 ft 384 kts 254°
2026-05-04 20:56 23.55576 -81.28604 18991 ft 383 kts 254°
2026-05-04 20:56 23.54810 -81.31374 18481 ft 380 kts 254°
2026-05-04 20:57 23.54048 -81.34124 17965 ft 378 kts 254°
2026-05-04 20:57 23.53289 -81.36865 17401 ft 376 kts 254°
2026-05-04 20:57 23.52536 -81.39583 16860 ft 373 kts 254°
2026-05-04 20:57 23.51798 -81.42244 16321 ft 371 kts 254°
2026-05-04 20:58 23.51053 -81.44925 15788 ft 368 kts 254°
2026-05-04 20:58 23.50312 -81.47592 15267 ft 366 kts 254°
2026-05-04 20:58 23.49576 -81.50242 14753 ft 364 kts 254°
2026-05-04 20:58 23.48845 -81.52869 14357 ft 360 kts 254°
2026-05-04 20:59 23.48122 -81.55465 14064 ft 357 kts 254°
2026-05-04 20:59 23.47401 -81.58056 13800 ft 358 kts 254°
2026-05-04 20:59 23.46676 -81.60655 13498 ft 358 kts 254°
2026-05-04 20:59 23.45953 -81.63246 13192 ft 358 kts 254°
2026-05-04 21:00 23.45230 -81.65837 12883 ft 356 kts 254°
2026-05-04 21:00 23.44510 -81.68413 12584 ft 356 kts 254°
2026-05-04 21:00 23.43791 -81.70988 12294 ft 355 kts 254°
2026-05-04 21:00 23.43070 -81.73563 11987 ft 353 kts 254°
2026-05-04 21:01 23.42354 -81.76120 11703 ft 352 kts 254°
2026-05-04 21:01 23.41641 -81.78666 11416 ft 351 kts 254°
2026-05-04 21:01 23.40928 -81.81211 11132 ft 350 kts 254°
2026-05-04 21:01 23.40227 -81.83708 10974 ft 347 kts 254°
2026-05-04 21:02 23.39523 -81.86217 10971 ft 347 kts 254°
2026-05-04 21:02 23.38814 -81.88740 10972 ft 349 kts 254°
2026-05-04 21:02 23.38103 -81.91271 10976 ft 349 kts 254°
2026-05-04 21:02 23.37391 -81.93800 10976 ft 350 kts 254°
2026-05-04 21:03 23.36680 -81.96328 10977 ft 349 kts 254°
2026-05-04 21:03 23.35966 -81.98861 10972 ft 349 kts 254°
2026-05-04 21:03 23.35255 -82.01385 10976 ft 349 kts 253°
2026-05-04 21:03 23.34541 -82.03915 10974 ft 350 kts 254°
2026-05-04 21:04 23.33827 -82.06446 10979 ft 349 kts 253°
2026-05-04 21:04 23.33111 -82.08981 10979 ft 349 kts 253°
2026-05-04 21:04 23.32398 -82.11504 10977 ft 349 kts 253°
2026-05-04 21:04 23.31692 -82.14001 10971 ft 350 kts 253°
2026-05-04 21:05 23.30976 -82.16529 10976 ft 350 kts 253°
2026-05-04 21:05 23.30261 -82.19056 10977 ft 350 kts 253°
2026-05-04 21:05 23.29545 -82.21583 10973 ft 350 kts 253°
2026-05-04 21:05 23.28827 -82.24111 10977 ft 350 kts 253°
2026-05-04 21:06 23.28104 -82.26639 10978 ft 350 kts 253°
2026-05-04 21:06 23.27377 -82.29169 10985 ft 350 kts 253°
2026-05-04 21:06 23.26652 -82.31700 10981 ft 350 kts 253°
2026-05-04 21:06 23.25928 -82.34227 10986 ft 350 kts 253°
2026-05-04 21:07 23.25202 -82.36761 10986 ft 351 kts 253°
2026-05-04 21:07 23.24473 -82.39295 10991 ft 351 kts 253°
2026-05-04 21:07 23.23756 -82.41791 10990 ft 350 kts 253°
2026-05-04 21:07 23.23030 -82.44319 10996 ft 350 kts 253°
2026-05-04 21:08 23.22302 -82.46849 10989 ft 350 kts 253°
2026-05-04 21:08 23.21595 -82.49302 10978 ft 328 kts 253°
2026-05-04 21:08 23.20934 -82.51592 10946 ft 306 kts 253°
2026-05-04 21:08 23.20317 -82.53736 10803 ft 290 kts 253°
2026-05-04 21:09 23.19718 -82.55815 10465 ft 282 kts 253°
2026-05-04 21:09 23.19137 -82.57828 10166 ft 273 kts 253°
2026-05-04 21:09 23.18573 -82.59784 9838 ft 266 kts 253°
2026-05-04 21:09 23.18027 -82.61678 9324 ft 266 kts 253°
2026-05-04 21:10 23.17474 -82.63589 8871 ft 264 kts 253°
2026-05-04 21:10 23.16924 -82.65492 8424 ft 262 kts 253°
2026-05-04 21:10 23.16377 -82.67381 7945 ft 261 kts 253°
2026-05-04 21:10 23.15834 -82.69260 7506 ft 260 kts 253°
2026-05-04 21:11 23.15294 -82.71126 7050 ft 259 kts 253°
2026-05-04 21:11 23.14756 -82.72982 6616 ft 257 kts 253°
2026-05-04 21:11 23.14220 -82.74833 6155 ft 256 kts 252°
2026-05-04 21:11 23.13687 -82.76670 5714 ft 254 kts 252°
2026-05-04 21:12 23.13156 -82.78499 5236 ft 253 kts 252°
2026-05-04 21:12 23.12629 -82.80316 4767 ft 252 kts 252°
2026-05-04 21:12 23.12102 -82.82127 4325 ft 251 kts 252°
2026-05-04 21:12 23.11579 -82.83929 3978 ft 246 kts 252°
2026-05-04 21:13 23.11067 -82.85693 3967 ft 247 kts 252°
2026-05-04 21:13 23.10552 -82.87463 3960 ft 249 kts 252°
2026-05-04 21:13 23.09917 -82.89202 3942 ft 249 kts 234°
2026-05-04 21:13 23.08637 -82.90463 3967 ft 252 kts 210°
2026-05-04 21:14 23.06956 -82.90986 3970 ft 255 kts 184°
2026-05-04 21:14 23.05205 -82.90665 3973 ft 257 kts 165°
2026-05-04 21:14 23.03484 -82.90109 3970 ft 258 kts 165°
2026-05-04 21:14 23.01770 -82.89535 3973 ft 258 kts 165°
2026-05-04 21:15 23.00047 -82.88967 3964 ft 258 kts 165°
2026-05-04 21:15 22.98325 -82.88407 3964 ft 258 kts 165°
2026-05-04 21:15 22.96606 -82.87847 3964 ft 258 kts 165°
2026-05-04 21:15 22.94888 -82.87287 3967 ft 258 kts 165°
2026-05-04 21:16 22.93158 -82.86722 3960 ft 259 kts 165°
2026-05-04 21:16 22.91438 -82.86162 3962 ft 259 kts 165°
2026-05-04 21:16 22.89711 -82.85598 3980 ft 259 kts 165°
2026-05-04 21:16 22.87985 -82.85034 3956 ft 257 kts 165°
2026-05-04 21:17 22.86266 -82.84474 3955 ft 258 kts 165°
2026-05-04 21:17 22.84568 -82.83921 3968 ft 258 kts 165°
2026-05-04 21:17 22.82999 -82.83011 3968 ft 261 kts 138°
2026-05-04 21:17 22.81960 -82.81397 3949 ft 264 kts 109°
2026-05-04 21:18 22.81727 -82.79433 3958 ft 266 kts 82°
2026-05-04 21:18 22.82193 -82.77493 3976 ft 267 kts 74°
2026-05-04 21:18 22.82729 -82.75561 3981 ft 267 kts 73°
2026-05-04 21:18 22.83279 -82.73636 3978 ft 267 kts 73°
2026-05-04 21:19 22.83816 -82.71713 3982 ft 266 kts 73°
2026-05-04 21:19 22.84347 -82.69790 3975 ft 266 kts 73°
2026-05-04 21:19 22.84881 -82.67865 3977 ft 267 kts 73°
2026-05-04 21:19 22.85419 -82.65932 3977 ft 267 kts 73°
2026-05-04 21:20 22.85954 -82.64004 3986 ft 267 kts 73°
2026-05-04 21:20 22.86490 -82.62073 3988 ft 267 kts 73°
2026-05-04 21:20 22.87017 -82.60171 3924 ft 268 kts 73°
2026-05-04 21:20 22.87558 -82.58264 3629 ft 260 kts 70°
2026-05-04 21:21 22.88489 -82.56637 3324 ft 249 kts 51°
2026-05-04 21:21 22.89504 -82.55133 2973 ft 242 kts 54°
2026-05-04 21:21 22.90475 -82.53666 2663 ft 240 kts 54°
2026-05-04 21:21 22.91432 -82.52220 2354 ft 225 kts 54°
2026-05-04 21:22 22.92313 -82.50885 2062 ft 207 kts 54°
2026-05-04 21:22 22.93108 -82.49681 1802 ft 186 kts 53°
2026-05-04 21:22 22.93828 -82.48590 1572 ft 171 kts 53°
2026-05-04 21:22 22.94494 -82.47582 1354 ft 157 kts 52°
2026-05-04 21:23 22.95118 -82.46638 1158 ft 153 kts 53°
2026-05-04 21:23 22.95745 -82.45714 944 ft 149 kts 53°
2026-05-04 21:23 22.96338 -82.44800 765 ft 147 kts 56°
2026-05-04 21:23 22.96929 -82.43897 591 ft 146 kts 54°
2026-05-04 21:24 22.97529 -82.43009 394 ft 147 kts 56°
2026-05-04 21:24 22.98121 -82.42111 245 ft 145 kts 56°
2026-05-04 21:24 22.98612 -82.41369 226 ft 82 kts 54°
2026-05-04 21:24 22.98776 -82.41129 228 ft 14 kts 42°
2026-05-04 21:25 22.98798 -82.41113 225 ft 3 kts 27°
2026-05-04 21:25 22.98841 -82.41097 228 ft 9 kts 14°
2026-05-04 21:25 22.98932 -82.41079 226 ft 23 kts 10°
2026-05-04 21:25 22.99102 -82.40948 229 ft 33 kts 57°
2026-05-04 21:26 22.99200 -82.40802 232 ft 13 kts 49°
2026-05-04 21:26 22.99268 -82.40796 227 ft 10 kts 333°
2026-05-04 21:26 22.99330 -82.40838 228 ft 11 kts 330°
2026-05-04 21:26 22.99382 -82.40829 230 ft 8 kts 40°
2026-05-04 21:27 22.99434 -82.40752 229 ft 16 kts 56°
2026-05-04 21:27 22.99502 -82.40715 228 ft 11 kts 342°
2026-05-04 21:27 22.99578 -82.40765 225 ft 13 kts 328°
2026-05-04 21:27 22.99626 -82.40752 225 ft 6 kts 44°
2026-05-04 21:28 22.99637 -82.40737 227 ft 0 kts 52°